Weather History for KDVK - March, 2014

Change the Weather History Date:

Saturday, March 1, 2014

  Actual Average (KLEX) Record (KLEX)
Temperature  
Mean Temperature 45 °F 41 °F  
Max Temperature 57 °F 50 °F 73 °F (1976)
Min Temperature 33 °F 32 °F 7 °F (1960)
Degree Days  
Heating Degree Days 20 24  
Month to date heating degree days 24  
Since 1 July heating degree days 3595  
Cooling Degree Days 0 0  
Month to date cooling degree days 0  
Year to date cooling degree days 0  
Moisture  
Dew Point 32 °F    
Average Humidity 59    
Maximum Humidity 87    
Minimum Humidity 41    
Precipitation  
Precipitation 0.00 in 0.12 in 5.56 in (1997)
Month to date precipitation 0.12  
Year to date precipitation 6.52  
Snow  
Snow 0.00 in 0.10 in 4.20 in (1980)
Month to date snowfall 0.1  
Since 1 July snowfall 11.4  
Snow Depth -    
Sea Level Pressure  
Sea Level Pressure 30.14 in    
Wind  
Wind Speed 6 mph (SW)    
Max Wind Speed 12 mph    
Max Gust Speed 17 mph    
Visibility 10 miles    
Events      
T = Trace of Precipitation, MM = Missing Value Source: NWS Daily Summary

Daily Weather History Graph

Daily Weather History Graph

Search for Another Location

Airport or City:

Trip Planner

Search our weather history database for the weather conditions in past years. The results will help you decide how hot, cold, wet, or windy it might be!

Date:

Astronomy

Mar. 01, 2014 Rise Set
Actual Time 7:10 AM EST 6:32 PM EST
Civil Twilight 6:44 AM EST 6:59 PM EST
Nautical Twilight 6:13 AM EST 7:29 PM EST
Astronomical Twilight 5:43 AM EST 7:59 PM EST
Moon 7:04 AM EST (3/1) 7:17 PM EST (3/1)
Length of Visible Light 12h 14m
Length of Day
11h 22m
New Moon, 0% of the Moon is Illuminated
Mar 1
New Moon
Mar 8
First Quarter
Mar 16
Full
Mar 23
Last Quarter
Mar 30
New

Hourly Weather History & Observations

Time (EST) Temp. Windchill Dew Point Humidity Pressure Visibility Wind Dir Wind Speed Gust Speed Precip Events Conditions
12:15 AM 33.8 °F 30.8 °F 17.6 °F 52% 30.09 in 10.0 mi South 3.5 mph - N/A   Overcast
12:35 AM 33.8 °F 28.6 °F 17.6 °F 52% 30.09 in 10.0 mi South 5.8 mph - N/A   Overcast
12:55 AM 33.8 °F 28.6 °F 19.4 °F 56% 30.09 in 10.0 mi SSW 5.8 mph - N/A   Overcast
1:15 AM 33.8 °F 27.7 °F 17.6 °F 52% 30.10 in 10.0 mi SSW 6.9 mph - N/A   Mostly Cloudy
1:35 AM 37.4 °F 32.1 °F 17.6 °F 45% 30.10 in 10.0 mi SSW 6.9 mph - N/A   Mostly Cloudy
1:55 AM 35.6 °F 30.7 °F 19.4 °F 52% 30.11 in 10.0 mi SW 5.8 mph - N/A   Overcast
2:15 AM 37.4 °F 30.8 °F 19.4 °F 48% 30.11 in 10.0 mi SW 9.2 mph - N/A   Overcast
2:35 AM 41.0 °F 34.3 °F 21.2 °F 45% 30.11 in 10.0 mi SW 11.5 mph - N/A   Overcast
2:55 AM 41.0 °F 35.2 °F 24.8 °F 53% 30.12 in 10.0 mi SW 9.2 mph - N/A   Overcast
3:15 AM 41.0 °F 34.7 °F 26.6 °F 57% 30.12 in 10.0 mi SW 10.4 mph 16.1 mph N/A   Overcast
3:35 AM 41.0 °F 34.3 °F 28.4 °F 61% 30.12 in 10.0 mi SW 11.5 mph - N/A   Overcast
3:55 AM 39.2 °F 33.6 °F 28.4 °F 65% 30.13 in 10.0 mi SW 8.1 mph - N/A   Overcast
4:15 AM 39.2 °F 34.2 °F 30.2 °F 70% 30.14 in 10.0 mi SW 6.9 mph - N/A   Overcast
4:35 AM 39.2 °F 33.0 °F 32.0 °F 75% 30.13 in 10.0 mi SSW 9.2 mph - N/A   Overcast
4:55 AM 39.2 °F 33.6 °F 32.0 °F 75% 30.13 in 10.0 mi SSW 8.1 mph - N/A   Overcast
5:15 AM 39.2 °F 35.9 °F 32.0 °F 75% 30.14 in 10.0 mi South 4.6 mph - N/A   Overcast
5:35 AM 37.4 °F 32.8 °F 32.0 °F 81% 30.14 in 10.0 mi South 5.8 mph - N/A   Overcast
5:55 AM 37.4 °F 32.1 °F 32.0 °F 81% 30.15 in 10.0 mi South 6.9 mph - N/A   Overcast
6:15 AM 37.4 °F 32.1 °F 32.0 °F 81% 30.15 in 10.0 mi South 6.9 mph - N/A   Overcast
6:35 AM 37.4 °F 33.8 °F 32.0 °F 81% 30.15 in 10.0 mi South 4.6 mph - N/A   Overcast
6:55 AM 37.4 °F 33.8 °F 32.0 °F 81% 30.16 in 10.0 mi SSW 4.6 mph - N/A   Overcast
7:15 AM 37.4 °F 33.8 °F 32.0 °F 81% 30.16 in 10.0 mi South 4.6 mph - N/A   Overcast
7:35 AM 37.4 °F 34.9 °F 32.0 °F 81% 30.17 in 10.0 mi South 3.5 mph - N/A   Light Drizzle
7:55 AM 37.4 °F - 32.0 °F 81% 30.17 in 10.0 mi Calm Calm - N/A   Overcast
8:15 AM 37.4 °F - 33.8 °F 87% 30.18 in 10.0 mi Calm Calm - N/A   Overcast
8:35 AM 37.4 °F - 33.8 °F 87% 30.19 in 10.0 mi Calm Calm - N/A   Overcast
8:55 AM 39.2 °F - 32.0 °F 75% 30.20 in 10.0 mi Calm Calm - N/A   Overcast
9:15 AM 41.0 °F - 32.0 °F 70% 30.20 in 10.0 mi Calm Calm - N/A   Overcast
9:35 AM 41.0 °F - 33.8 °F 76% 30.20 in 10.0 mi Calm Calm - N/A   Overcast
9:55 AM 42.8 °F 41.1 °F 33.8 °F 70% 30.20 in 10.0 mi SSW 3.5 mph - N/A   Overcast
10:15 AM 42.8 °F - 33.8 °F 70% 30.20 in 10.0 mi Calm Calm - N/A   Overcast
10:35 AM 44.6 °F 43.1 °F 33.8 °F 66% 30.19 in 10.0 mi SSW 3.5 mph - N/A   Overcast
10:55 AM 44.6 °F 43.1 °F 33.8 °F 66% 30.20 in 10.0 mi South 3.5 mph - N/A   Overcast
11:15 AM 48.2 °F - 33.8 °F 58% 30.18 in 10.0 mi SSW 8.1 mph - N/A   Overcast
11:35 AM 51.8 °F - 32.0 °F 47% 30.18 in 10.0 mi SSW 10.4 mph - N/A   Mostly Cloudy
11:55 AM 53.6 °F - 32.0 °F 44% 30.18 in 10.0 mi SW 8.1 mph 16.1 mph N/A   Overcast
12:15 PM 53.6 °F - 32.0 °F 44% 30.18 in 10.0 mi West 5.8 mph 17.3 mph N/A   Mostly Cloudy
12:35 PM 53.6 °F - 32.0 °F 44% 30.17 in 10.0 mi WSW 11.5 mph - N/A   Overcast
12:55 PM 55.4 °F - 32.0 °F 41% 30.16 in 10.0 mi West 8.1 mph - N/A   Overcast
1:15 PM 55.4 °F - 32.0 °F 41% 30.15 in 10.0 mi SW 9.2 mph - N/A   Overcast
1:35 PM 55.4 °F - 32.0 °F 41% 30.13 in 10.0 mi SW 8.1 mph - N/A   Overcast
1:55 PM 55.4 °F - 32.0 °F 41% 30.13 in 10.0 mi SSW 6.9 mph - N/A   Overcast
2:15 PM 55.4 °F - 32.0 °F 41% 30.13 in 10.0 mi SW 8.1 mph - N/A   Overcast
2:35 PM 55.4 °F - 32.0 °F 41% 30.13 in 10.0 mi SW 8.1 mph - N/A   Overcast
2:55 PM 55.4 °F - 33.8 °F 44% 30.12 in 10.0 mi SW 10.4 mph - N/A   Overcast
3:15 PM 57.2 °F - 33.8 °F 41% 30.12 in 10.0 mi SW 9.2 mph - N/A   Overcast
3:40 PM 55.4 °F - 33.8 °F 44% 30.13 in 10.0 mi SW 8.1 mph - N/A   Overcast
3:55 PM 55.4 °F - 33.8 °F 44% 30.12 in 10.0 mi SSW 5.8 mph - N/A   Overcast
4:15 PM 55.4 °F - 33.8 °F 44% 30.11 in 10.0 mi SW 9.2 mph - N/A   Overcast
4:35 PM 55.4 °F - 33.8 °F 44% 30.11 in 10.0 mi SW 6.9 mph - N/A   Overcast
4:55 PM 55.4 °F - 35.6 °F 47% 30.10 in 10.0 mi SW 8.1 mph - N/A   Overcast
5:15 PM 55.4 °F - 35.6 °F 47% 30.11 in 10.0 mi SW 5.8 mph - N/A   Overcast
5:35 PM 55.4 °F - 35.6 °F 47% 30.11 in 10.0 mi SW 8.1 mph - N/A   Overcast
5:55 PM 55.4 °F - 35.6 °F 47% 30.12 in 10.0 mi WSW 6.9 mph - N/A   Overcast
6:15 PM 53.6 °F - 35.6 °F 51% 30.12 in 10.0 mi WSW 6.9 mph - N/A   Overcast
6:35 PM 53.6 °F - 35.6 °F 51% 30.13 in 10.0 mi SW 3.5 mph - N/A   Overcast
6:55 PM 53.6 °F - 35.6 °F 51% 30.13 in 10.0 mi SW 5.8 mph - N/A   Overcast
7:15 PM 53.6 °F - 35.6 °F 51% 30.13 in 10.0 mi SW 4.6 mph - N/A   Overcast
7:35 PM 51.8 °F - 35.6 °F 54% 30.13 in 10.0 mi SW 3.5 mph - N/A   Overcast
7:55 PM 51.8 °F - 37.4 °F 58% 30.13 in 10.0 mi SSW 4.6 mph - N/A   Overcast
8:15 PM 51.8 °F - 37.4 °F 58% 30.13 in 10.0 mi SSW 3.5 mph - N/A   Overcast
8:35 PM 50.0 °F - 37.4 °F 62% 30.13 in 10.0 mi SSW 3.5 mph - N/A   Overcast
8:55 PM 50.0 °F - 37.4 °F 62% 30.14 in 10.0 mi SW 4.6 mph - N/A   Overcast
9:15 PM 51.8 °F - 37.4 °F 58% 30.15 in 10.0 mi WSW 4.6 mph - N/A   Overcast
9:35 PM 51.8 °F - 37.4 °F 58% 30.15 in 10.0 mi WSW 8.1 mph - N/A   Overcast
9:55 PM 51.8 °F - 37.4 °F 58% 30.16 in 10.0 mi WSW 8.1 mph - N/A   Overcast
10:15 PM 51.8 °F - 37.4 °F 58% 30.16 in 10.0 mi SW 5.8 mph - N/A   Overcast
10:35 PM 51.8 °F - 37.4 °F 58% 30.16 in 10.0 mi SSW 3.5 mph - N/A   Overcast
10:55 PM 50.0 °F - 37.4 °F 62% 30.14 in 10.0 mi SSW 5.8 mph - N/A   Overcast
11:15 PM 50.0 °F - 37.4 °F 62% 30.14 in 10.0 mi SSW 5.8 mph - N/A   Overcast
11:35 PM 50.0 °F - 39.2 °F 66% 30.14 in 10.0 mi SSW 6.9 mph - N/A   Overcast
11:55 PM 50.0 °F - 39.2 °F 66% 30.14 in 10.0 mi SSW 4.6 mph - N/A   Overcast